This demonstration page uses our WeatherBlox Daily Observations layout. Learn more.

Left ArrowRight Arrow

Hourly Observations for December 13, 2021

Temp ( °F °C ) Dew Point ( °F °C ) Humidity (%) Winds ( mph kmh ) Pressure ( in mb ) Visibility ( mi km ) Precip ( " mm )
12:51 am 00:51 Clear 38 3.3 28 -2.2 68 68 Calm 30.07 1018 10 16 0.00 0.00
1:51 am 01:51 Clear 39 3.9 28 -2.2 65 65 N 5 7 30.09 1019 10 16 0.00 0.00
2:51 am 02:51 Clear 35 1.7 26 -3.3 70 70 Calm 30.09 1019 10 16 0.00 0.00
3:51 am 03:51 Clear 35 1.7 27 -2.8 72 72 S 5 7 30.08 1019 10 16 0.00 0.00
4:51 am 04:51 Clear 35 1.7 27 -2.8 72 72 E 3 6 30.08 1019 10 16 0.00 0.00
5:51 am 05:51 Clear 36 2.2 28 -2.2 73 73 SE 8 13 30.11 1020 10 16 0.00 0.00
6:51 am 06:51 Clear 36 2.2 28 -2.2 73 73 ENE 5 7 30.14 1021 10 16 0.00 0.00
7:51 am 07:51 Sunny 39 3.9 29 -1.7 67 67 SE 8 13 30.15 1021 10 16 0.00 0.00
8:51 am 08:51 Sunny 47 8.3 31 -0.6 54 54 SSE 12 19 30.15 1021 10 16 0.00 0.00
9:51 am 09:51 Sunny 55 12.8 32 0 42 42 ESE 6 9 30.14 1021 10 16 0.00 0.00
10:51 am 10:51 Sunny 60 15.6 32 0 35 35 ESE 14 22 30.14 1021 10 16 0.00 0.00
11:51 am 11:51 Sunny 63 17.2 33 0.6 33 33 E 7 11 30.12 1020 10 16 0.00 0.00
12:51 pm 12:51 Sunny 65 18.3 36 2.2 34 34 VRB 6 9 30.09 1019 10 16 0.00 0.00
1:51 pm 13:51 Sunny 67 19.4 37 2.8 33 33 S 6 9 30.06 1018 10 16 0.00 0.00
2:51 pm 14:51 Sunny 68 20 35 1.7 30 30 VRB 5 7 30.04 1017 10 16 0.00 0.00
3:51 pm 15:51 Sunny 69 20.6 34 1.1 27 27 Calm 30.04 1017 10 16 0.00 0.00
4:51 pm 16:51 Sunny 67 19.4 35 1.7 31 31 WSW 3 6 30.05 1018 10 16 0.00 0.00
5:51 pm 17:51 Clear 60 15.6 33 0.6 36 36 NNE 3 6 30.07 1018 10 16 0.00 0.00
6:51 pm 18:51 Clear 59 15 33 0.6 38 38 ENE 3 6 30.07 1018 10 16 0.00 0.00
7:51 pm 19:51 Clear 56 13.3 33 0.6 42 42 SSE 6 9 30.07 1018 10 16 0.00 0.00
8:51 pm 20:51 Clear 58 14.4 33 0.6 39 39 SE 9 15 30.08 1019 10 16 0.00 0.00
9:51 pm 21:51 Clear 58 14.4 33 0.6 39 39 SE 10 17 30.06 1018 10 16 0.00 0.00
10:51 pm 22:51 Clear 58 14.4 33 0.6 39 39 ESE 12 19 30.06 1018 10 16 0.00 0.00
11:51 pm 23:51 Clear 57 13.9 32 0 39 39 ESE 13 20 30.05 1018 10 16 0.00 0.00

Powered by AerisWeather